DECAYED

STARLINK-3920, 52575 (Decayed)

Orbit data source: Space-Track

STARLINK-3920, 52575 was a payload satellite owned by SpaceX/Seattle (US) in LEO that was launched on Fri, 13 May 2022 UTC via an FALCON 9 launch vehicle from the Air Force Western Test Range (AFWTR). Payload-class satellites include a variety of spacecraft equipped with specific instruments for various scientific and technological missions. These include communications satellites like Starlink; space stations such as the ISS; scientific satellites like the Hubble; Earth observation satellites from companies like Planet Labs, Umbra, and HawkEye 360; GPS; miniature CubeSats for education and research; and military/defense satellites.

Not visible in the next 10 days
Identifier
52575, 2022-051AR
Orbit
Decayed
Country
Flag of USUS
Related business
Manufacturer
SpaceX/Seattle
Mission
Decayed Commercial Communications
Bus & Motor
STARLINK, Unknown motor
Mass
297 kg wet, ~275 kg dry
Launch date (UTC)
2022-05-13 (4 years ago)
Launch vehicle
FALCON 9
Launch site
Air Force Western Test Range (AFWTR)
Object type
Payload
Rocket body
Debris
Shape & HBR
Box + 1 Pan, 10.1 m
Radar Cross Section
13.562 m², Large (>1 m²)

Expand to show TLE details & history
Last TLE update: 4 months ago

TLE from 4 months ago
0 STARLINK-3920
1 52575U 22051AR  26050.57980853  .13117018  12671-4  12108-3 0  9990
2 52575  53.1809 103.4666 0003223 277.3175  82.7511 16.51283934210201
Epoch: 2026-02-19T13:54Z
TLE epoch observation values (Epoch: 2026-02-19T13:54:55.456Z)
Latitude
-0.00012°
Longitude
105.20638°
Altitude
136.641 km
Speed
7.826 km/s
True Right ascension
06h 53m 51s
True Declination
0° 00' 00"
Sunlit
Object was in full shadow at epoch
Visualization orbit readout
Latitude
Unknown
Longitude
Unknown
Altitude
Unknown
Speed
Unknown
Apparent Right ascension
Unknown
Apparent Declination
Unknown
Sunlit
N/A
Visualization observer readout
Local Sidereal Time
21:32:05
Azimuth
Unknown
Elevation
Unknown
Doppler factor
Unknown
Orbital elements
Apogee altitude
138.322 km
Perigee altitude
134.123 km
Semi-major axis
6,514.36 km
Eccentricity
0.00032
Inclination
53.1809°
RAAN
103.4666°
Arg. of periapsis
277.3175°
True anomaly
82.78774°
Mean anomaly
82.7511°
Eccentric anomaly
82.76942°
Mean motion
4.12796 °/min
Orbital period
87.21 mins
BSTAR
0.00012108
Loading maneuver chart data...
Computing Atmospheric mass density...
Loading historical data...
Loading historical data...
Loading historical data...
Loading historical data...
Loading historical data...
Loading historical data...
Loading historical data...

Documentation

Showing up to 5 results
|